,,PA_Meas_PMT16A,,PR_Meas_QMR101_102,,RH_Meas_QMH101,,SR_Meas_QMS101,,TA_Meas_QMH101,,GenWind,,GenWind,
time,status,PA,status,PR,status,RH,status,SR,status,TA,status,DirAvg,status,SpdAvg,
2011-08-26, 00:00:04,VALID,917.49,VALID,0,VALID,97.3434,VALID,0.107441,VALID,19.7808,VALID,12,VALID,0.637891,
2011-08-26, 00:01:04,VALID,917.485,VALID,0,VALID,97.3281,VALID,0.107441,VALID,19.7418,VALID,12,VALID,0.471484,
2011-08-26, 00:02:04,VALID,917.465,VALID,0,VALID,97.3434,VALID,0,VALID,19.7613,VALID,11,VALID,0.589844,
2011-08-26, 00:03:04,VALID,917.5,VALID,0,VALID,97.351,VALID,0.107441,VALID,19.7403,VALID,12,VALID,0.541406,
2011-08-26, 00:04:04,VALID,917.457,VALID,0,VALID,97.3358,VALID,0,VALID,19.7013,VALID,12,VALID,0.690625,
2011-08-26, 00:05:04,VALID,917.449,VALID,0,VALID,97.3281,VALID,0,VALID,19.7013,VALID,12,VALID,0.645312,
2011-08-26, 00:06:04,VALID,917.43,VALID,0,VALID,97.3434,VALID,0,VALID,19.7013,VALID,12,VALID,0.534766,
2011-08-26, 00:07:04,VALID,917.427,VALID,0,VALID,97.3205,VALID,0.107441,VALID,19.7028,VALID,12,VALID,0.498437,
2011-08-26, 00:08:04,VALID,917.411,VALID,0,VALID,97.3281,VALID,0,VALID,19.7028,VALID,12,VALID,0.562109,
2011-08-26, 00:09:04,VALID,917.431,VALID,0,VALID,97.3281,VALID,0,VALID,19.7013,VALID,25,VALID,0.779297,
2011-08-26, 00:10:04,VALID,917.402,VALID,0,VALID,97.3434,VALID,0,VALID,19.7208,VALID,25,VALID,0.464063,
2011-08-26, 00:11:04,VALID,917.334,VALID,0,VALID,97.3434,VALID,0,VALID,19.7028,VALID,25,VALID,0.369922,
2011-08-26, 00:12:04,VALID,917.313,VALID,0,VALID,97.3434,VALID,0.107441,VALID,19.7028,VALID,25,VALID,0.526953,
2011-08-26, 00:13:04,VALID,917.344,VALID,0,VALID,97.3434,VALID,0,VALID,19.6833,VALID,24,VALID,0.455859,
2011-08-26, 00:14:04,VALID,917.331,VALID,0,VALID,97.3434,VALID,0,VALID,19.6623,VALID,24,VALID,0.0257812,
2011-08-26, 00:15:04,VALID,917.313,VALID,0,VALID,97.3281,VALID,0.107441,VALID,19.6623,VALID,24,VALID,0.521484,
2011-08-26, 00:16:04,VALID,917.308,VALID,0,VALID,97.3358,VALID,0.107441,VALID,19.6623,VALID,24,VALID,0.759375,
2011-08-26, 00:17:04,VALID,917.303,VALID,0,VALID,97.3205,VALID,0,VALID,19.6638,VALID,24,VALID,1.0957,
2011-08-26, 00:18:04,VALID,917.319,VALID,0,VALID,97.3205,VALID,0,VALID,19.6638,VALID,24,VALID,1.27969,
2011-08-26, 00:19:04,VALID,917.337,VALID,0,VALID,97.3358,VALID,0,VALID,19.6833,VALID,24,VALID,1.22656,
2011-08-26, 00:20:04,VALID,917.344,VALID,0,VALID,97.3205,VALID,0,VALID,19.6623,VALID,23,VALID,1.125,
2011-08-26, 00:21:04,VALID,917.363,VALID,0,VALID,97.3358,VALID,0,VALID,19.7028,VALID,23,VALID,1.2625,
2011-08-26, 00:22:04,VALID,917.336,VALID,0,VALID,97.3358,VALID,0,VALID,19.7028,VALID,23,VALID,0.90625,
2011-08-26, 00:23:04,VALID,917.331,VALID,0,VALID,97.3205,VALID,0,VALID,19.6818,VALID,20,VALID,0.992188,
2011-08-26, 00:24:04,VALID,917.321,VALID,0,VALID,97.3053,VALID,0.107441,VALID,19.6833,VALID,21,VALID,1.20938,
2011-08-26, 00:25:04,VALID,917.333,VALID,0,VALID,97.3358,VALID,0,VALID,19.6638,VALID,22,VALID,1.13359,
2011-08-26, 00:26:04,VALID,917.372,VALID,0,VALID,97.3358,VALID,0,VALID,19.6638,VALID,22,VALID,0.639453,
2011-08-26, 00:27:04,VALID,917.349,VALID,0,VALID,97.3434,VALID,0,VALID,19.6428,VALID,355,VALID,1.14961,
2011-08-26, 00:28:04,VALID,917.361,VALID,0,VALID,97.3358,VALID,0,VALID,19.6638,VALID,355,VALID,1.0082,
2011-08-26, 00:29:04,VALID,917.396,VALID,0,VALID,97.3358,VALID,0,VALID,19.6638,VALID,355,VALID,0.683203,
2011-08-26, 00:30:04,VALID,917.399,VALID,0,VALID,97.3281,VALID,0,VALID,19.6638,VALID,356,VALID,0.810156,
2011-08-26, 00:31:04,VALID,917.407,VALID,0,VALID,97.3586,VALID,0,VALID,19.6638,VALID,356,VALID,1.04961,
2011-08-26, 00:32:04,VALID,917.393,VALID,0,VALID,97.3281,VALID,0,VALID,19.6623,VALID,356,VALID,1.15937,
2011-08-26, 00:33:04,VALID,917.416,VALID,0,VALID,97.3586,VALID,0,VALID,19.6623,VALID,356,VALID,0.711719,
2011-08-26, 00:34:04,VALID,917.418,VALID,0,VALID,97.3663,VALID,0,VALID,19.7013,VALID,356,VALID,0.580859,
2011-08-26, 00:35:04,VALID,917.433,VALID,0,VALID,97.3434,VALID,0,VALID,19.7418,VALID,21,VALID,0.795313,
2011-08-26, 00:36:04,VALID,917.446,VALID,0,VALID,97.3358,VALID,0,VALID,19.7418,VALID,20,VALID,0.439844,
2011-08-26, 00:37:04,VALID,917.429,VALID,0,VALID,97.3358,VALID,0,VALID,19.7208,VALID,20,VALID,0.728906,
2011-08-26, 00:38:04,VALID,917.457,VALID,0,VALID,97.3281,VALID,0,VALID,19.7223,VALID,20,VALID,0.609375,
2011-08-26, 00:39:04,VALID,917.495,VALID,0,VALID,97.3281,VALID,0,VALID,19.7013,VALID,20,VALID,0.214844,
2011-08-26, 00:40:04,VALID,917.472,VALID,0,VALID,97.3358,VALID,0,VALID,19.7223,VALID,20,VALID,0.450781,
2011-08-26, 00:41:04,VALID,917.486,VALID,0,VALID,97.3205,VALID,0,VALID,19.6818,VALID,20,VALID,0.632031,
2011-08-26, 00:42:04,VALID,917.465,VALID,0,VALID,97.3205,VALID,0,VALID,19.7028,VALID,20,VALID,0.725781,
2011-08-26, 00:43:04,VALID,917.473,VALID,0,VALID,97.3205,VALID,0,VALID,19.7028,VALID,20,VALID,0.421875,
2011-08-26, 00:44:04,VALID,917.473,VALID,0,VALID,97.3129,VALID,0,VALID,19.7028,VALID,20,VALID,0.496094,
2011-08-26, 00:45:04,VALID,917.409,VALID,0,VALID,97.3053,VALID,0,VALID,19.7028,VALID,20,VALID,0.477344,
2011-08-26, 00:46:04,VALID,917.401,VALID,0,VALID,97.2977,VALID,0,VALID,19.7028,VALID,20,VALID,0.517578,
2011-08-26, 00:47:04,VALID,917.401,VALID,0,VALID,97.2977,VALID,0,VALID,19.6833,VALID,20,VALID,0.21875,
2011-08-26, 00:48:04,VALID,917.377,VALID,0,VALID,97.3053,VALID,0,VALID,19.7223,VALID,20,VALID,0.236328,
2011-08-26, 00:49:04,VALID,917.371,VALID,0,VALID,97.3053,VALID,0,VALID,19.7028,VALID,20,VALID,0.604297,
2011-08-26, 00:50:04,VALID,917.324,VALID,0,VALID,97.3129,VALID,0,VALID,19.7223,VALID,20,VALID,0.73125,
2011-08-26, 00:51:04,VALID,917.31,VALID,0,VALID,97.29,VALID,0,VALID,19.7028,VALID,20,VALID,1.06914,
2011-08-26, 00:52:04,VALID,917.307,VALID,0,VALID,97.3205,VALID,0,VALID,19.7223,VALID,20,VALID,0.792578,
2011-08-26, 00:53:04,VALID,917.265,VALID,0,VALID,97.3129,VALID,0,VALID,19.7223,VALID,20,VALID,0.609766,
2011-08-26, 00:54:04,VALID,917.253,VALID,0,VALID,97.3281,VALID,0,VALID,19.7028,VALID,20,VALID,0.860937,
2011-08-26, 00:55:04,VALID,917.219,VALID,0,VALID,97.3053,VALID,0,VALID,19.6833,VALID,20,VALID,0.799609,
2011-08-26, 00:56:04,VALID,917.195,VALID,0,VALID,97.3129,VALID,0,VALID,19.6833,VALID,20,VALID,0.667578,
2011-08-26, 00:57:04,VALID,917.171,VALID,0,VALID,97.3053,VALID,0,VALID,19.6833,VALID,20,VALID,0.703906,
2011-08-26, 00:58:04,VALID,917.092,VALID,0,VALID,97.3129,VALID,0,VALID,19.6833,VALID,20,VALID,0.588281,
2011-08-26, 00:59:04,VALID,917.092,VALID,0,VALID,97.3129,VALID,0,VALID,19.6638,VALID,20,VALID,0.851172,
2011-08-26, 01:00:04,VALID,917.054,VALID,0,VALID,97.3053,VALID,0,VALID,19.6638,VALID,19,VALID,1.3125,
2011-08-26, 01:01:04,VALID,917.08,VALID,0,VALID,97.29,VALID,0,VALID,19.6638,VALID,19,VALID,0.695313,
2011-08-26, 01:02:04,VALID,917.03,VALID,0,VALID,97.3129,VALID,0,VALID,19.6833,VALID,19,VALID,0.460547,
2011-08-26, 01:03:04,VALID,917.008,VALID,0,VALID,97.2977,VALID,0,VALID,19.6833,VALID,19,VALID,0.569531,
2011-08-26, 01:04:04,VALID,916.977,VALID,0,VALID,97.3053,VALID,0,VALID,19.6833,VALID,20,VALID,0.542578,
2011-08-26, 01:05:04,VALID,917.017,VALID,0,VALID,97.2824,VALID,0,VALID,19.6638,VALID,19,VALID,0.578906,
2011-08-26, 01:06:04,VALID,917.001,VALID,0,VALID,97.2672,VALID,0,VALID,19.6638,VALID,20,VALID,0.388281,
2011-08-26, 01:07:04,VALID,917.021,VALID,0,VALID,97.2748,VALID,0,VALID,19.6443,VALID,19,VALID,0.346484,
2011-08-26, 01:08:04,VALID,917.015,VALID,0,VALID,97.2748,VALID,0,VALID,19.6233,VALID,19,VALID,0.125391,
2011-08-26, 01:09:04,VALID,917.03,VALID,0,VALID,97.2748,VALID,0,VALID,19.6638,VALID,19,VALID,0.182812,
2011-08-26, 01:10:04,VALID,917.037,VALID,0,VALID,97.2824,VALID,0,VALID,19.6233,VALID,19,VALID,0.296875,
2011-08-26, 01:11:04,VALID,917.073,VALID,0,VALID,97.2595,VALID,0,VALID,19.6443,VALID,19,VALID,0.375,
2011-08-26, 01:12:04,VALID,917.043,VALID,0,VALID,97.29,VALID,0,VALID,19.6233,VALID,19,VALID,0.382813,
2011-08-26, 01:13:04,VALID,917.015,VALID,0,VALID,97.2672,VALID,0,VALID,19.6443,VALID,19,VALID,0.283984,
2011-08-26, 01:14:04,VALID,917.007,VALID,0,VALID,97.2748,VALID,0,VALID,19.6443,VALID,19,VALID,0.385938,
2011-08-26, 01:15:04,VALID,916.985,VALID,0,VALID,97.2595,VALID,0,VALID,19.6443,VALID,19,VALID,0.158984,
2011-08-26, 01:16:04,VALID,916.945,VALID,0,VALID,97.2824,VALID,0,VALID,19.6443,VALID,19,VALID,0.484766,
2011-08-26, 01:17:04,VALID,916.94,VALID,0,VALID,97.2595,VALID,0,VALID,19.6443,VALID,19,VALID,0.349219,
2011-08-26, 01:18:04,VALID,916.914,VALID,0,VALID,97.2443,VALID,0,VALID,19.6248,VALID,19,VALID,0.426172,
2011-08-26, 01:19:04,VALID,916.904,VALID,0,VALID,97.29,VALID,0,VALID,19.6233,VALID,19,VALID,0.597266,
2011-08-26, 01:20:04,VALID,916.907,VALID,0,VALID,97.2977,VALID,0,VALID,19.6248,VALID,19,VALID,0.630078,
2011-08-26, 01:21:04,VALID,916.889,VALID,0,VALID,97.2824,VALID,0,VALID,19.6038,VALID,310,VALID,0.508594,
2011-08-26, 01:22:04,VALID,916.859,VALID,0,VALID,97.2977,VALID,0,VALID,19.6038,VALID,356,VALID,0.439063,
2011-08-26, 01:23:04,VALID,916.871,VALID,0,VALID,97.2977,VALID,0,VALID,19.6248,VALID,356,VALID,0.877344,
2011-08-26, 01:24:04,VALID,916.804,VALID,0,VALID,97.2748,VALID,0,VALID,19.5843,VALID,356,VALID,0.976172,
2011-08-26, 01:25:04,VALID,916.812,VALID,0,VALID,97.29,VALID,0,VALID,19.6053,VALID,356,VALID,0.776563,
2011-08-26, 01:26:04,VALID,916.783,VALID,0,VALID,97.2977,VALID,0,VALID,19.6053,VALID,356,VALID,0.639453,
2011-08-26, 01:27:04,VALID,916.766,VALID,0,VALID,97.2824,VALID,0,VALID,19.6053,VALID,356,VALID,0.218359,
2011-08-26, 01:28:04,VALID,916.727,VALID,0,VALID,97.2748,VALID,0,VALID,19.6053,VALID,356,VALID,0.275781,
2011-08-26, 01:29:04,VALID,916.74,VALID,0,VALID,97.2748,VALID,0,VALID,19.6053,VALID,356,VALID,0.217578,
2011-08-26, 01:30:04,VALID,916.722,VALID,0,VALID,97.2595,VALID,0,VALID,19.5858,VALID,356,VALID,0.492578,
2011-08-26, 01:31:04,VALID,916.738,VALID,0,VALID,97.2443,VALID,0,VALID,19.5648,VALID,356,VALID,0.514453,
2011-08-26, 01:32:04,VALID,916.738,VALID,0,VALID,97.2595,VALID,0,VALID,19.5663,VALID,356,VALID,0.597656,
2011-08-26, 01:33:04,VALID,916.752,VALID,0,VALID,97.2595,VALID,0,VALID,19.6068,VALID,356,VALID,0.360938,
2011-08-26, 01:34:04,VALID,916.74,VALID,0,VALID,97.2672,VALID,0,VALID,19.5858,VALID,356,VALID,0.255469,
2011-08-26, 01:35:04,VALID,916.761,VALID,0,VALID,97.2595,VALID,0,VALID,19.5858,VALID,356,VALID,0.449219,
2011-08-26, 01:36:04,VALID,916.754,VALID,0,VALID,97.2672,VALID,0,VALID,19.5663,VALID,356,VALID,0.441016,
2011-08-26, 01:37:04,VALID,916.777,VALID,0,VALID,97.2672,VALID,0,VALID,19.5663,VALID,356,VALID,0.558203,
2011-08-26, 01:38:04,VALID,916.798,VALID,0,VALID,97.2672,VALID,0,VALID,19.5663,VALID,356,VALID,0.448828,
2011-08-26, 01:39:04,VALID,916.778,VALID,0,VALID,97.2443,VALID,0,VALID,19.5663,VALID,356,VALID,0.284766,
2011-08-26, 01:40:04,VALID,916.778,VALID,0,VALID,97.2595,VALID,0,VALID,19.6068,VALID,356,VALID,0.507813,
2011-08-26, 01:41:04,VALID,916.793,VALID,0,VALID,97.2595,VALID,0,VALID,19.5858,VALID,356,VALID,0.580078,
2011-08-26, 01:42:04,VALID,916.765,VALID,0,VALID,97.2367,VALID,0,VALID,19.6068,VALID,356,VALID,0.584375,
2011-08-26, 01:43:04,VALID,916.712,VALID,0,VALID,97.2367,VALID,0,VALID,19.5663,VALID,356,VALID,0.521094,
2011-08-26, 01:44:04,VALID,916.672,VALID,0,VALID,97.2367,VALID,0,VALID,19.5663,VALID,356,VALID,0.479688,
2011-08-26, 01:45:04,VALID,916.674,VALID,0,VALID,97.2138,VALID,0,VALID,19.5663,VALID,356,VALID,0.512891,
2011-08-26, 01:46:04,VALID,916.635,VALID,0,VALID,97.2138,VALID,0,VALID,19.5858,VALID,356,VALID,0.582812,
2011-08-26, 01:47:04,VALID,916.626,VALID,0,VALID,97.2138,VALID,0,VALID,19.5663,VALID,356,VALID,0.890234,
2011-08-26, 01:48:04,VALID,916.592,VALID,0,VALID,97.2062,VALID,0,VALID,19.5648,VALID,356,VALID,0.35,
2011-08-26, 01:49:04,VALID,916.591,VALID,0,VALID,97.2062,VALID,0,VALID,19.5858,VALID,356,VALID,0.487109,
2011-08-26, 01:50:04,VALID,916.573,VALID,0,VALID,97.2138,VALID,0,VALID,19.5858,VALID,356,VALID,1.18398,
2011-08-26, 01:51:04,VALID,916.555,VALID,0,VALID,97.2062,VALID,0,VALID,19.5858,VALID,356,VALID,0.524609,
2011-08-26, 01:52:04,VALID,916.556,VALID,0,VALID,97.1909,VALID,0,VALID,19.5858,VALID,356,VALID,0.566406,
2011-08-26, 01:53:04,VALID,916.546,VALID,0,VALID,97.2214,VALID,0,VALID,19.6053,VALID,356,VALID,0.398047,
2011-08-26, 01:54:04,VALID,916.53,VALID,0,VALID,97.1986,VALID,0,VALID,19.6053,VALID,356,VALID,0.476953,
2011-08-26, 01:55:04,VALID,916.553,VALID,0,VALID,97.1909,VALID,0,VALID,19.5843,VALID,356,VALID,0.417969,
2011-08-26, 01:56:04,VALID,916.529,VALID,0,VALID,97.2062,VALID,0,VALID,19.5858,VALID,356,VALID,0.0316406,
2011-08-26, 01:57:04,VALID,916.504,VALID,0,VALID,97.1986,VALID,0,VALID,19.6263,VALID,356,VALID,0.065625,
2011-08-26, 01:58:04,VALID,916.504,VALID,0,VALID,97.1986,VALID,0,VALID,19.6248,VALID,356,VALID,0,
2011-08-26, 01:59:04,VALID,916.48,VALID,0,VALID,97.1986,VALID,0,VALID,19.6248,VALID,356,VALID,0,
2011-08-26, 02:00:04,VALID,916.455,VALID,0,VALID,97.1986,VALID,0,VALID,19.6053,VALID,356,VALID,0.148438,
2011-08-26, 02:01:04,VALID,916.453,VALID,0,VALID,97.2214,VALID,0,VALID,19.6248,VALID,356,VALID,0,
2011-08-26, 02:02:04,VALID,916.411,VALID,0,VALID,97.1909,VALID,0,VALID,19.6248,VALID,356,VALID,0,
2011-08-26, 02:03:04,VALID,916.373,VALID,0,VALID,97.2062,VALID,0,VALID,19.6248,VALID,356,VALID,0.402734,
2011-08-26, 02:04:04,VALID,916.38,VALID,0,VALID,97.1909,VALID,0,VALID,19.6248,VALID,356,VALID,0.219141,
2011-08-26, 02:05:04,VALID,916.36,VALID,0,VALID,97.1757,VALID,0,VALID,19.6053,VALID,356,VALID,0.974219,
2011-08-26, 02:06:04,VALID,916.354,VALID,0,VALID,97.1604,VALID,0,VALID,19.5843,VALID,356,VALID,0.644141,
2011-08-26, 02:07:04,VALID,916.34,VALID,0,VALID,97.1452,VALID,0,VALID,19.5858,VALID,356,VALID,0.289844,
2011-08-26, 02:08:04,VALID,916.314,VALID,0,VALID,97.1299,VALID,0,VALID,19.6053,VALID,356,VALID,0.382422,
2011-08-26, 02:09:04,VALID,916.34,VALID,0,VALID,97.1223,VALID,0,VALID,19.6248,VALID,356,VALID,0.267188,
2011-08-26, 02:10:04,VALID,916.298,VALID,0,VALID,97.1147,VALID,0,VALID,19.6248,VALID,356,VALID,0,
2011-08-26, 02:11:04,VALID,916.294,VALID,0,VALID,97.1299,VALID,0,VALID,19.6443,VALID,356,VALID,0.0476562,
2011-08-26, 02:12:04,VALID,916.288,VALID,0,VALID,97.1147,VALID,0,VALID,19.6248,VALID,356,VALID,0.257422,
2011-08-26, 02:13:04,VALID,916.304,VALID,0,VALID,97.1223,VALID,0,VALID,19.6248,VALID,356,VALID,0.148438,
2011-08-26, 02:14:04,VALID,916.271,VALID,0,VALID,97.0994,VALID,0,VALID,19.6443,VALID,356,VALID,0,
2011-08-26, 02:15:04,VALID,916.267,VALID,0,VALID,97.1147,VALID,0,VALID,19.6248,VALID,356,VALID,0,
2011-08-26, 02:16:04,VALID,916.263,VALID,0,VALID,97.1071,VALID,0,VALID,19.6443,VALID,356,VALID,0,
2011-08-26, 02:17:04,VALID,916.257,VALID,0,VALID,97.1071,VALID,0,VALID,19.6443,VALID,356,VALID,0,
2011-08-26, 02:18:04,VALID,916.229,VALID,0,VALID,97.1071,VALID,0,VALID,19.6443,VALID,356,VALID,0.371875,
2011-08-26, 02:19:04,VALID,916.238,VALID,0,VALID,97.1071,VALID,0,VALID,19.6833,VALID,356,VALID,0.505859,
2011-08-26, 02:20:04,VALID,916.237,VALID,0,VALID,97.1071,VALID,0,VALID,19.6638,VALID,356,VALID,0.706641,
2011-08-26, 02:21:04,VALID,916.27,VALID,0,VALID,97.0385,VALID,0,VALID,19.6233,VALID,356,VALID,0.628125,
2011-08-26, 02:22:04,VALID,916.276,VALID,0,VALID,97.0003,VALID,0,VALID,19.6248,VALID,356,VALID,0.467578,
2011-08-26, 02:23:04,VALID,916.246,VALID,0,VALID,97.0385,VALID,0,VALID,19.6443,VALID,356,VALID,0.513672,
2011-08-26, 02:24:04,VALID,916.271,VALID,0,VALID,97.0156,VALID,0,VALID,19.6653,VALID,356,VALID,0.583594,
2011-08-26, 02:25:04,VALID,916.258,VALID,0,VALID,97.0385,VALID,0,VALID,19.7058,VALID,356,VALID,0.537891,
2011-08-26, 02:26:04,VALID,916.25,VALID,0,VALID,97.0232,VALID,0,VALID,19.6443,VALID,356,VALID,0.592969,
2011-08-26, 02:27:04,VALID,916.235,VALID,0,VALID,97.0308,VALID,0,VALID,19.7058,VALID,356,VALID,0.690234,
2011-08-26, 02:28:04,VALID,916.233,VALID,0,VALID,97.0156,VALID,0,VALID,19.6443,VALID,330,VALID,0.813281,
2011-08-26, 02:29:04,VALID,916.207,VALID,0,VALID,96.9622,VALID,0,VALID,19.5843,VALID,330,VALID,1.16914,
2011-08-26, 02:30:04,VALID,916.209,VALID,0,VALID,96.9775,VALID,0,VALID,19.6248,VALID,332,VALID,0.641797,
2011-08-26, 02:31:04,VALID,916.195,VALID,0,VALID,97.0156,VALID,0,VALID,19.6038,VALID,337,VALID,0.527734,
2011-08-26, 02:32:04,VALID,916.194,VALID,0,VALID,97.0232,VALID,0,VALID,19.5828,VALID,20,VALID,0.410156,
2011-08-26, 02:33:04,VALID,916.189,VALID,0,VALID,97.0537,VALID,0,VALID,19.6458,VALID,20,VALID,0.438672,
2011-08-26, 02:34:04,VALID,916.239,VALID,0,VALID,97.0003,VALID,0,VALID,19.6248,VALID,20,VALID,0.980078,
2011-08-26, 02:35:04,VALID,916.252,VALID,0,VALID,97.0232,VALID,0,VALID,19.6248,VALID,19,VALID,0.319141,
2011-08-26, 02:36:04,VALID,916.273,VALID,0,VALID,97.0308,VALID,0,VALID,19.6038,VALID,20,VALID,0.458203,
2011-08-26, 02:37:04,VALID,916.306,VALID,0,VALID,97.0232,VALID,0,VALID,19.6443,VALID,19,VALID,0.223828,
2011-08-26, 02:38:04,VALID,916.307,VALID,0,VALID,97.0156,VALID,0,VALID,19.6248,VALID,3,VALID,0.375391,
2011-08-26, 02:39:04,VALID,916.326,VALID,0,VALID,97.0308,VALID,0,VALID,19.6248,VALID,3,VALID,0.212891,
2011-08-26, 02:40:04,VALID,916.317,VALID,0,VALID,97.0537,VALID,0,VALID,19.6443,VALID,3,VALID,0.0445312,
2011-08-26, 02:41:04,VALID,916.281,VALID,0,VALID,97.0385,VALID,0,VALID,19.6638,VALID,3,VALID,0.315234,
2011-08-26, 02:42:04,VALID,916.304,VALID,0,VALID,96.9927,VALID,0,VALID,19.6653,VALID,360,VALID,0.962109,
2011-08-26, 02:43:04,VALID,916.285,VALID,0,VALID,96.9851,VALID,0,VALID,19.6248,VALID,353,VALID,0.635156,
2011-08-26, 02:44:04,VALID,916.299,VALID,0,VALID,96.9851,VALID,0,VALID,19.6458,VALID,345,VALID,0.730859,
2011-08-26, 02:45:04,VALID,916.285,VALID,0,VALID,97.008,VALID,0,VALID,19.6053,VALID,341,VALID,0.945703,
2011-08-26, 02:46:04,VALID,916.289,VALID,0,VALID,96.9698,VALID,0,VALID,19.6263,VALID,341,VALID,0.566797,
2011-08-26, 02:47:04,VALID,916.274,VALID,0,VALID,96.9927,VALID,0,VALID,19.6263,VALID,341,VALID,0.701953,
2011-08-26, 02:48:04,VALID,916.267,VALID,0,VALID,96.9775,VALID,0,VALID,19.6263,VALID,341,VALID,0.542578,
2011-08-26, 02:49:04,VALID,916.295,VALID,0,VALID,97.008,VALID,0,VALID,19.6053,VALID,341,VALID,0.422266,
2011-08-26, 02:50:04,VALID,916.276,VALID,0,VALID,97.0156,VALID,0,VALID,19.6053,VALID,341,VALID,0.328906,
2011-08-26, 02:51:04,VALID,916.261,VALID,0,VALID,97.0385,VALID,0,VALID,19.5843,VALID,341,VALID,0.464453,
2011-08-26, 02:52:04,VALID,916.26,VALID,0,VALID,97.0461,VALID,0,VALID,19.6053,VALID,341,VALID,0.0605469,
2011-08-26, 02:53:04,VALID,916.245,VALID,0,VALID,97.0766,VALID,0,VALID,19.6263,VALID,341,VALID,0,
2011-08-26, 02:54:04,VALID,916.233,VALID,0,VALID,97.0766,VALID,0,VALID,19.6248,VALID,341,VALID,0.692578,
2011-08-26, 02:55:04,VALID,916.281,VALID,0,VALID,97.069,VALID,0,VALID,19.6068,VALID,341,VALID,0.839063,
2011-08-26, 02:56:04,VALID,916.247,VALID,0,VALID,97.0842,VALID,0,VALID,19.5663,VALID,341,VALID,0.680078,
2011-08-26, 02:57:04,VALID,916.265,VALID,0,VALID,97.0994,VALID,0,VALID,19.5663,VALID,341,VALID,0.54375,
2011-08-26, 02:58:04,VALID,916.261,VALID,0,VALID,97.0766,VALID,0,VALID,19.5858,VALID,341,VALID,0.4125,
2011-08-26, 02:59:04,VALID,916.259,VALID,0,VALID,97.1147,VALID,0,VALID,19.5858,VALID,341,VALID,0.299219,
2011-08-26, 03:00:04,VALID,916.274,VALID,0,VALID,97.1223,VALID,0,VALID,19.6053,VALID,341,VALID,0.182812,
2011-08-26, 03:01:04,VALID,916.274,VALID,0,VALID,97.1147,VALID,0,VALID,19.6053,VALID,341,VALID,0.36875,
2011-08-26, 03:02:04,VALID,916.274,VALID,0,VALID,97.1147,VALID,0,VALID,19.6053,VALID,341,VALID,0.651953,
2011-08-26, 03:03:04,VALID,916.258,VALID,0,VALID,97.1376,VALID,0,VALID,19.5843,VALID,349,VALID,0.926172,
2011-08-26, 03:04:04,VALID,916.271,VALID,0,VALID,97.0994,VALID,0,VALID,19.5858,VALID,349,VALID,1.00234,
2011-08-26, 03:05:04,VALID,916.286,VALID,0,VALID,97.069,VALID,0,VALID,19.5873,VALID,349,VALID,0.903125,
2011-08-26, 03:06:04,VALID,916.283,VALID,0,VALID,97.0613,VALID,0,VALID,19.5663,VALID,349,VALID,0.8875,
2011-08-26, 03:07:04,VALID,916.275,VALID,0,VALID,97.0308,VALID,0,VALID,19.5663,VALID,356,VALID,0.903516,
2011-08-26, 03:08:04,VALID,916.272,VALID,0,VALID,97.0461,VALID,0,VALID,19.5873,VALID,15,VALID,0.867188,
2011-08-26, 03:09:04,VALID,916.322,VALID,0,VALID,97.0461,VALID,0,VALID,19.5858,VALID,16,VALID,0.517578,
2011-08-26, 03:10:04,VALID,916.299,VALID,0,VALID,96.9546,VALID,0,VALID,19.5858,VALID,348,VALID,0.93125,
2011-08-26, 03:11:04,VALID,916.296,VALID,0,VALID,96.9927,VALID,0,VALID,19.5858,VALID,348,VALID,0.896875,
2011-08-26, 03:12:04,VALID,916.309,VALID,0,VALID,96.9241,VALID,0,VALID,19.5858,VALID,16,VALID,1.39414,
2011-08-26, 03:13:04,VALID,916.293,VALID,0,VALID,96.886,VALID,0,VALID,19.6053,VALID,15,VALID,1.09687,
2011-08-26, 03:14:04,VALID,916.288,VALID,0,VALID,96.8707,VALID,0,VALID,19.6248,VALID,15,VALID,0.729297,
2011-08-26, 03:15:04,VALID,916.271,VALID,0,VALID,96.8479,VALID,0,VALID,19.6053,VALID,352,VALID,0.364062,
2011-08-26, 03:16:04,VALID,916.292,VALID,0,VALID,96.8174,VALID,0,VALID,19.6053,VALID,352,VALID,0.722266,
2011-08-26, 03:17:04,VALID,916.292,VALID,0,VALID,96.825,VALID,0,VALID,19.6053,VALID,352,VALID,0.447656,
2011-08-26, 03:18:04,VALID,916.254,VALID,0,VALID,96.825,VALID,0,VALID,19.6053,VALID,352,VALID,0.321094,
2011-08-26, 03:19:04,VALID,916.25,VALID,0,VALID,96.8403,VALID,0,VALID,19.6638,VALID,352,VALID,0.202344,
2011-08-26, 03:20:04,VALID,916.223,VALID,0,VALID,96.8326,VALID,0,VALID,19.6848,VALID,352,VALID,0.273438,
2011-08-26, 03:21:04,VALID,916.218,VALID,0,VALID,96.8403,VALID,0,VALID,19.6443,VALID,352,VALID,0.440625,
2011-08-26, 03:22:04,VALID,916.171,VALID,0,VALID,96.8555,VALID,0,VALID,19.6443,VALID,352,VALID,0,
2011-08-26, 03:23:04,VALID,916.187,VALID,0,VALID,96.8936,VALID,0,VALID,19.6638,VALID,352,VALID,0.342578,
2011-08-26, 03:24:04,VALID,916.174,VALID,0,VALID,96.825,VALID,0,VALID,19.6638,VALID,352,VALID,0.61875,
2011-08-26, 03:25:04,VALID,916.19,VALID,0,VALID,96.7183,VALID,0,VALID,19.6443,VALID,352,VALID,0.877734,
2011-08-26, 03:26:04,VALID,916.202,VALID,0,VALID,96.7564,VALID,0,VALID,19.6443,VALID,352,VALID,0.473828,
2011-08-26, 03:27:04,VALID,916.19,VALID,0,VALID,96.6954,VALID,0,VALID,19.6248,VALID,352,VALID,0.420312,
2011-08-26, 03:28:04,VALID,916.196,VALID,0,VALID,96.6878,VALID,0,VALID,19.6248,VALID,352,VALID,0.460938,
2011-08-26, 03:29:04,VALID,916.209,VALID,0,VALID,96.6802,VALID,0,VALID,19.6248,VALID,352,VALID,0.338672,
2011-08-26, 03:30:04,VALID,916.22,VALID,0,VALID,96.6878,VALID,0,VALID,19.6458,VALID,352,VALID,0,
2011-08-26, 03:31:04,VALID,916.24,VALID,0,VALID,96.7107,VALID,0,VALID,19.6038,VALID,352,VALID,0,
2011-08-26, 03:32:04,VALID,916.194,VALID,0,VALID,96.7107,VALID,0,VALID,19.6248,VALID,352,VALID,0.0015625,
2011-08-26, 03:33:04,VALID,916.221,VALID,0,VALID,96.7107,VALID,0,VALID,19.6248,VALID,352,VALID,0.54375,
2011-08-26, 03:34:04,VALID,916.199,VALID,0,VALID,96.6497,VALID,0,VALID,19.6248,VALID,352,VALID,0.514844,
2011-08-26, 03:35:04,VALID,916.209,VALID,0,VALID,96.642,VALID,0,VALID,19.6248,VALID,331,VALID,0.645703,
2011-08-26, 03:36:04,VALID,916.211,VALID,0,VALID,96.6725,VALID,0,VALID,19.6653,VALID,330,VALID,0.446875,
2011-08-26, 03:37:04,VALID,916.215,VALID,0,VALID,96.6649,VALID,0,VALID,19.6638,VALID,330,VALID,0.408203,
2011-08-26, 03:38:04,VALID,916.174,VALID,0,VALID,96.6954,VALID,0,VALID,19.6443,VALID,331,VALID,0.447266,
2011-08-26, 03:39:04,VALID,916.195,VALID,0,VALID,96.7488,VALID,0,VALID,19.6638,VALID,331,VALID,0.142188,
2011-08-26, 03:40:04,VALID,916.192,VALID,0,VALID,96.7869,VALID,0,VALID,19.6638,VALID,331,VALID,0.332812,
2011-08-26, 03:41:04,VALID,916.172,VALID,0,VALID,96.8021,VALID,0,VALID,19.6833,VALID,330,VALID,0.444141,
2011-08-26, 03:42:04,VALID,916.165,VALID,0,VALID,96.8021,VALID,0,VALID,19.6443,VALID,331,VALID,0.396094,
2011-08-26, 03:43:04,VALID,916.163,VALID,0,VALID,96.8555,VALID,0,VALID,19.6638,VALID,331,VALID,0.214453,
2011-08-26, 03:44:04,VALID,916.183,VALID,0,VALID,96.8021,VALID,0,VALID,19.6443,VALID,331,VALID,0.465234,
2011-08-26, 03:45:04,VALID,916.203,VALID,0,VALID,96.8098,VALID,0,VALID,19.6248,VALID,330,VALID,0.399219,